{"data":{"norad_id":63987,"intl_designator":"2025-100F","name":"SCS-01 F","alt_names":[],"object_type":"PAYLOAD","status":"ACTIVE","operator":null,"country":"PRC","launch_date":"2025-05-14","launch_site_code":"JSC","launch_vehicle":null,"mission":null,"orbit_class":"UNKNOWN","rcs_meters":null,"size_class":null,"mass_kg":null,"dimensions":null,"purposes":[],"wikipedia_slug":null,"has_3d_model":false,"image_url":null,"decayed_at":null,"tle_current":{"epoch":"2026-05-25T03:43:47.213184Z","epoch_age_seconds":51846,"freshness":"FRESH","line1":"1 63987U 25100F   26145.15540756  .00013735  00000+0  64174-3 0  9995","line2":"2 63987  97.3639 218.4675 0010343  46.1597 314.0491 15.19865775 57130","mean_motion":15.19865775,"eccentricity":0.0010343,"inclination_deg":97.3639,"raan_deg":218.4675,"arg_perigee_deg":46.1597,"mean_anomaly_deg":314.0491,"bstar":0.00064174,"rev_number":5713,"period_min":94.74520866818,"perigee_km":499.12539031486,"apogee_km":513.36642479743,"semimajor_km":6884.3829075561,"source":"CELESTRAK","updated_at":"2026-05-25T13:38:04.147629Z"}}}